Location: Unspecified
(44.4377°N, 88.0525°W)
Time: 06:02:33
(UTC-05:00)

Okean 3 - Visible Passes

Search period start: 18 April 2019 00:00
Search period end: 28 April 2019 00:00
Orbit: 576 x 602 km, 82.5° (Epoch: 17 April)

Date Brightness Start Highest point End Pass type
(mag) Time Alt. Az. Time Alt. Az. Time Alt. Az.
18 Apr 5.5 02:08:53 27° NNE 02:08:53 27° NNE 02:10:54 10° NNE visible
18 Apr 5.8 03:45:24 13° NW 03:45:24 13° NW 03:46:31 10° NW visible
19 Apr 5.3 02:16:47 29° N 02:16:47 29° N 02:18:55 10° N visible
20 Apr 5.2 02:24:41 29° N 02:24:41 29° N 02:26:51 10° N visible
21 Apr 6.3 00:56:03 12° NE 00:56:03 12° NE 00:56:31 10° NE visible
21 Apr 5.3 02:32:35 26° NNW 02:32:35 26° NNW 02:34:41 10° N visible
22 Apr 6.1 01:03:56 15° NE 01:03:56 15° NE 01:05:00 10° NE visible
22 Apr 5.5 02:40:27 21° NW 02:40:27 21° NW 02:42:24 10° NNW visible
23 Apr 5.9 01:11:48 20° NE 01:11:48 20° NE 01:13:18 10° NNE visible
23 Apr 5.7 02:48:19 17° NW 02:48:19 17° NW 02:49:58 10° NNW visible
24 Apr 5.6 01:19:39 24° NNE 01:19:39 24° NNE 01:21:27 10° NNE visible
24 Apr 5.9 02:56:10 13° NW 02:56:10 13° NW 02:57:15 10° NW visible
25 Apr 5.5 01:27:30 27° NNE 01:27:30 27° NNE 01:29:29 10° N visible
26 Apr 5.4 01:35:20 28° N 01:35:20 28° N 01:37:26 10° N visible
27 Apr 6.3 00:06:38 11° NE 00:06:38 11° NE 00:06:54 10° NE visible
27 Apr 5.4 01:43:10 26° NNW 01:43:10 26° NNW 01:45:17 10° N visible
